Location: Sebastopol
(38.4021°N, 122.8239°W)
Time: 15:10:58
(UTC+00:00)

ATLAS CENTAUR R/B - Pass Details

Date: 29 October 2020
Orbit: 479 x 667 km, 64.7° (Epoch: 26 November)

Event Time Altitude Azimuth Distance (km) Brightness Sun altitude
Rises 12:39:57 0° 179° (S) 2,698 4.9 -23.1°
Reaches altitude 10° 12:42:33 10° 164° (SSE) 1,775 4.1 -22.6°
Maximum altitude 12:45:37 22° 113° (ESE) 1,177 3.7 -22.0°
Drops below altitude 10° 12:48:34 10° 62° (ENE) 1,713 4.7 -21.4°
Sets 12:51:01 0° 47° (NE) 2,578 5.4 -20.9°
